FENGYUN 3A

Last updated on Wed Sep 23 2026 00:03:10 GMT+0000 (Coordinated Universal Time)

1 32958U 08026A 26265.59591146 .00000047 00000+0 42823-4 0 9997 2 32958 98.6944 204.6281 0008150 201.0237 159.0606 14.19588077949224
UTC large
Height (km)
Speed (km/s)
/
Latitude / Longitude
Inclination (degrees)
Orbital Period (minutes)
Azimuth
Elevation
Range (km)
Doppler Factor

Next 0 passes for location: London (51.5072 / 0.1276)

No passes found over London.
FENGYUN 3A